Other Surface Observations
Issued by NWS

Home | Current Version | Previous Version | Text Only | Print | Product List | Glossary On
Versions: 1 2 3 4 5 6 7 8 9 10 11 12 13 14 15 16 17 18 19 20 21 22 23 24 25 26 27 28 29 30 31 32 33 34 35 36 37 38 39 40 41 42 43 44 45 46 47 48 49 50
274
SXUS52 KTAE 210218
OSOTAE
OSOTAE
North Florida/South Alabama/Southwest Georgia Weather Roundup
National Weather Service Tallahassee Florida
1000 PM EDT FRI APR 20 2018

Note: "fair" indicates few or no clouds below 12,000 feet with no
significant weather and/or obstructions to visibility.

!FLZ017-115-028-034-025-210300
...North Florida...

CITY           SKY/WX    TMP DP  RH WIND       PRES   REMARKS
TALLAHASSEE    FAIR      69  49  48 E7        30.20R
APALACHICOLA   MOCLDY    67  61  81 N6        30.17R
PERRY          CLOUDY    67  54  63 E8        30.22R
CROSS CITY     CLOUDY    64  56  76 NE12      30.21R
JACKSONVILLE   CLOUDY    62  54  74 NE10      30.25R
$$

!FLZ112-006-005-002-011-210300
...Florida Panhandle...

CITY           SKY/WX    TMP DP  RH WIND       PRES   REMARKS
MARIANNA       FAIR      63  46  54 NE8       30.20R
BONIFAY        FAIR      62  48  60 N5        30.21R
PANAMA CITY NW FAIR      63  54  72 NE5       30.18R
TYNDALL AFB    FAIR      63  57  80 N3        30.19R
TYND DRONE APT MOCLDY    64  57  77 CALM      30.19R
DE FUNIAK SPR  FAIR      64  46  52 NE7       30.21R
EGLIN AFB      MOCLDY    62  49  62 N3        30.17R
DESTIN         FAIR      63  50  62 CALM      30.18R
HURLBURT       PTCLDY    62  48  61 CALM      30.16S
CRESTVIEW      FAIR      58  48  69 CALM      30.20R
PENSACOLA      FAIR      63  49  60 N5        30.17S
$$

!ALZ063-066-210300
...South Alabama...

CITY           SKY/WX    TMP DP  RH WIND       PRES   REMARKS
DOTHAN         FAIR      64  41  42 NE8       30.25R
OZARK CAIRNS   FAIR      59  45  60 NE7       30.21R
FT RUCKER HELI FAIR      58  46  62 CALM      30.22R
RUCKER HELI 3  FAIR      60  45  56 E6        30.21R
RUCKER HELI 2  FAIR      64  44  48 E7        30.21R
FLORALA APT    FAIR      60  45  57 NE5       30.23R
ANDALUSIA      FAIR      63  45  51 NE6       30.20S
TROY           FAIR      55  46  71 CALM      30.24R
EUFALA         FAIR      55  48  77 CALM      30.23S
MOBILE         FAIR      56  49  77 MISG      30.19R
$$

!GAZ120>161-210300
...Southwest and South Central Georgia...

CITY           SKY/WX    TMP DP  RH WIND       PRES   REMARKS
THOMASVILLE    FAIR      64  46  52 NE6       30.24S
BAINBRIDGE       N/A     64  50  59 NE9       30.22S
MOODY AFB      MOCLDY    63  51  66 E7        30.24R
VALDOSTA       CLOUDY    63  51  65 E7        30.24R
MOULTRIE       FAIR      63  45  51 NE5       30.25R
BLAKELY        FAIR      57  46  67 CALM      30.24S
ALBANY         FAIR      60  44  55 NE6       30.26S
TIFTON         FAIR      58  47  64 CALM      30.26R
FITZGERALD     CLOUDY    56  49  76 NE3       30.30R
CORDELE        FAIR      59  48  67 CALM      30.28R
AMERICUS       FAIR      54  39  58 CALM      30.28S
HOMERVILLE     MOCLDY    61  52  72 E5        30.27R
$$

!GMZ750-755-770-775-210300
...Coastal and Buoy Obs...

STATION/POSITION TIME  TEMP    WIND        PRES    VSBY  WAVE
                       AIR SEA DIR/SP/G                  HT/PER
                 (UTC) (F)     (DEG/KT/KT) (MB)    (MI)  (FT/S)
KEATON BEACH     0200   66      60/  7/  9 1022.9R
CEDAR KEY        0200   65      60/ 18/ 21 1022.5R
C TOWER          0200   69      90/ 20/ 22 1021.9R
APALACHICOLA BUO NOT AVBL
PANAMA CITY BUOY 0150   69 73   50/ 10/ 12 1020.9R         2/ 6
MOBILE BUOY      0200      71   70/  6/  8 1022.0
ORANGE BCH AL BU 0200   66      20/  4/  6 1021.6
$$




USA.gov is the U.S. government's official web portal to all federal, state and local government web resources and services.